START_TIME,STEP,MOV.,M15,t_acc.,M20,t_acc.
1979-07-23 03:00:43.480 ,1,0,0.,24.0,0.,24.0
1979-07-23 03:01:07.480 ,2,1,0.,24.0,0.,24.0
1979-07-23 03:01:31.480 ,2,0,0.,24.0,0.,24.0
1979-07-23 03:01:55.480 ,3,1,0.,24.0,0.,24.0
1979-07-23 03:02:19.480 ,3,0,0.,24.0,0.,24.0
1979-07-23 03:03:31.480 ,0,0,0.,24.0,0.,24.0
1979-07-23 03:03:55.480 ,0,0,0.,24.0,0.,24.0
1979-07-23 03:04:19.480 ,6,1,0.,24.0,0.,24.0
1979-07-23 03:04:43.480 ,6,0,0.,24.0,0.,24.0
1979-07-23 03:05:07.480 ,7,1,0.,24.0,0.,24.0
1979-07-23 03:05:31.480 ,7,0,0.,24.0,0.,24.0
1979-07-23 03:05:55.480 ,7,1,0.,24.0,0.,24.0
1979-07-23 03:06:19.480 ,7,0,0.,24.0,0.,24.0
1979-07-23 03:06:43.480 ,6,1,0.,24.0,0.,24.0
1979-07-23 03:07:07.480 ,6,0,0.,24.0,0.,24.0
1979-07-23 03:07:31.480 ,5,1,0.,24.0,0.,24.0
1979-07-23 03:07:55.480 ,5,0,0.,24.0,0.,24.0
1979-07-23 03:08:19.480 ,4,1,0.,24.0,0.,24.0
1979-07-23 03:08:43.480 ,4,0,0.,24.0,0.,24.0
1979-07-23 03:09:07.480 ,3,1,0.,24.0,0.,24.0
1979-07-23 03:09:31.480 ,3,0,0.,24.0,0.,24.0
1979-07-23 03:09:55.480 ,2,1,0.,24.0,0.,24.0
1979-07-23 03:10:19.480 ,2,0,0.,24.0,0.,24.0
1979-07-23 03:10:43.480 ,1,1,0.,24.0,0.,24.0
1979-07-23 03:11:07.480 ,1,0,0.,24.0,0.,24.0
1979-07-23 03:11:31.480 ,0,1,0.,24.0,0.,24.0
1979-07-23 03:11:55.480 ,0,0,0.,24.0,0.,24.0
1979-07-23 03:12:19.480 ,0,1,0.,24.0,0.,24.0
1979-07-23 03:12:43.480 ,0,0,0.,24.0,0.,24.0
1979-07-23 03:13:07.480 ,1,1,0.,24.0,0.,24.0
1979-07-23 03:13:31.480 ,1,0,0.,24.0,0.,24.0
1979-07-23 03:13:55.480 ,2,1,0.,24.0,0.,24.0
1979-07-23 03:14:19.480 ,2,0,0.,24.0,0.,24.0
1979-07-23 03:14:43.480 ,3,1,0.,24.0,0.,24.0
1979-07-23 03:15:07.480 ,3,0,0.,24.0,0.,24.0
1979-07-23 03:15:31.480 ,4,1,0.,24.0,0.,24.0
1979-07-23 03:15:55.480 ,4,0,0.,24.0,0.,24.0
1979-07-23 03:16:19.480 ,5,1,0.,24.0,0.,24.0
1979-07-23 03:16:43.480 ,5,0,0.,24.0,0.,24.0
1979-07-23 03:17:07.480 ,6,1,0.,24.0,0.,24.0
1979-07-23 03:17:31.480 ,6,0,0.,24.0,0.,24.0
1979-07-23 03:17:55.480 ,7,1,0.,24.0,0.,24.0
1979-07-23 03:18:19.480 ,7,0,0.,24.0,0.,24.0
1979-07-23 03:18:43.480 ,7,1,0.,24.0,0.,24.0
1979-07-23 03:19:07.480 ,7,0,0.,24.0,0.,24.0
1979-07-23 03:19:31.480 ,6,1,0.,24.0,0.,24.0
1979-07-23 03:19:55.480 ,6,0,0.,24.0,0.,24.0
1979-07-23 03:20:19.480 ,5,1,0.,24.0,0.,24.0
1979-07-23 03:20:43.480 ,5,0,0.,24.0,0.,24.0
1979-07-23 03:21:07.480 ,4,1,0.,24.0,0.,24.0
1979-07-23 03:21:31.480 ,4,0,0.,24.0,0.,24.0
1979-07-23 03:21:55.480 ,3,1,0.,24.0,0.,24.0
1979-07-23 03:22:19.480 ,3,0,0.,24.0,0.,24.0
1979-07-23 03:22:43.480 ,2,1,0.,24.0,0.,24.0
1979-07-23 03:23:07.480 ,2,0,0.,24.0,0.,24.0
1979-07-23 03:23:31.480 ,1,1,0.,24.0,0.,24.0
1979-07-23 03:23:55.480 ,1,0,0.,24.0,0.,24.0
1979-07-23 03:24:19.480 ,0,1,0.,24.0,0.,24.0
1979-07-23 03:24:43.480 ,0,0,0.,24.0,0.,24.0
1979-07-23 03:25:07.480 ,0,1,0.,24.0,0.,24.0
1979-07-23 03:25:31.480 ,0,0,0.,24.0,0.,24.0
1979-07-23 03:25:55.480 ,1,1,0.,24.0,0.,24.0
1979-07-23 03:26:19.480 ,1,0,0.,24.0,0.,24.0
1979-07-23 03:26:43.480 ,2,1,0.,24.0,0.,24.0
1979-07-23 03:27:07.480 ,2,0,0.,24.0,0.,24.0
1979-07-23 03:28:19.480 ,0,0,0.,24.0,0.,24.0
1979-07-23 03:28:43.480 ,0,0,0.,24.0,0.,24.0
1979-07-23 03:29:07.480 ,5,1,0.,24.0,0.,24.0
1979-07-23 03:29:31.480 ,5,0,0.,24.0,0.,24.0
1979-07-23 03:29:55.480 ,6,1,0.,24.0,0.,24.0
1979-07-23 03:30:19.480 ,6,0,0.,24.0,0.,24.0
1979-07-23 03:30:43.480 ,7,0,0.,24.0,0.,24.0
1979-07-23 03:31:07.480 ,7,0,0.,24.0,0.,24.0
1979-07-23 03:31:31.480 ,3,1,0.,24.0,0.,24.0
1979-07-23 03:31:55.480 ,0,1,0.,24.0,0.,24.0
1979-07-23 03:32:19.480 ,4,1,0.,24.0,0.,24.0
1979-07-23 03:32:43.480 ,7,1,0.,24.0,0.,24.0
1979-07-23 03:33:07.480 ,3,1,0.,24.0,0.,24.0
1979-07-23 03:33:31.480 ,0,1,0.,24.0,0.,24.0
1979-07-23 03:33:55.480 ,4,1,0.,24.0,0.,24.0
1979-07-23 03:34:19.480 ,7,1,0.,24.0,0.,24.0
1979-07-23 03:34:43.480 ,3,1,0.,24.0,0.,24.0
1979-07-23 03:35:07.480 ,0,1,0.,24.0,0.,24.0
1979-07-23 03:35:31.480 ,4,1,0.,24.0,0.,24.0
1979-07-23 03:35:55.480 ,7,1,0.,24.0,0.,24.0
1979-07-23 03:36:19.480 ,3,1,0.,24.0,0.,24.0
1979-07-23 03:36:43.480 ,0,1,0.,24.0,0.,24.0
1979-07-23 03:37:07.480 ,4,1,0.,24.0,0.,24.0
1979-07-23 03:37:31.480 ,7,1,0.,24.0,0.,24.0
1979-07-23 03:37:55.480 ,3,1,0.,24.0,0.,24.0
1979-07-23 03:38:19.480 ,0,1,0.,24.0,0.,24.0
1979-07-23 03:38:43.480 ,4,1,0.,24.0,0.,24.0
1979-07-23 03:39:07.480 ,7,1,1.,24.0,0.,24.0
1979-07-23 03:39:31.480 ,3,1,0.,24.0,0.,24.0
1979-07-23 03:39:55.480 ,0,1,0.,24.0,0.,24.0
1979-07-23 03:40:19.480 ,4,1,0.,24.0,0.,24.0
1979-07-23 03:40:43.480 ,7,1,0.,24.0,0.,24.0
1979-07-23 03:41:07.480 ,3,1,0.,24.0,0.,24.0
1979-07-23 03:41:31.480 ,0,1,0.,24.0,0.,24.0
1979-07-23 03:41:55.480 ,0,0,0.,24.0,0.,24.0
1979-07-23 03:42:19.480 ,0,0,0.,24.0,0.,24.0
1979-07-23 03:42:43.480 ,5,1,0.,24.0,0.,24.0
1979-07-23 03:43:07.480 ,5,0,0.,24.0,0.,24.0
1979-07-23 04:23:55.480 ,7,1,0.,24.0,0.,24.0
1979-07-23 04:24:19.480 ,3,1,0.,24.0,0.,24.0
1979-07-23 04:24:43.480 ,0,1,0.,24.0,0.,24.0
1979-07-23 04:25:07.480 ,4,1,0.,24.0,0.,24.0
1979-07-23 04:25:31.480 ,7,1,1.,24.0,0.,24.0
1979-07-23 04:25:55.480 ,3,1,0.,24.0,0.,24.0
1979-07-23 04:26:19.480 ,0,1,0.,24.0,0.,24.0
1979-07-23 04:26:43.480 ,4,1,0.,24.0,0.,24.0
1979-07-23 04:27:07.480 ,7,1,0.,24.0,0.,24.0
1979-07-23 04:27:31.480 ,3,1,0.,24.0,0.,24.0
1979-07-23 04:27:55.480 ,0,1,0.,24.0,0.,24.0
1979-07-23 04:28:19.480 ,4,1,0.,24.0,0.,24.0
1979-07-23 04:28:43.480 ,7,1,0.,24.0,0.,24.0
1979-07-23 04:29:07.480 ,3,1,0.,24.0,0.,24.0
1979-07-23 04:29:31.480 ,0,1,0.,24.0,0.,24.0
1979-07-23 04:29:55.480 ,0,0,0.,24.0,0.,24.0
1979-07-23 04:30:19.480 ,0,0,0.,24.0,0.,24.0
1979-07-23 04:30:43.480 ,5,1,0.,24.0,0.,24.0
1979-07-23 04:31:07.480 ,5,0,0.,24.0,0.,24.0
1979-07-23 04:31:31.480 ,4,1,0.,24.0,0.,24.0
1979-07-23 04:31:55.480 ,4,0,0.,24.0,0.,24.0
1979-07-23 04:32:19.480 ,3,1,0.,24.0,0.,24.0
1979-07-23 04:32:43.480 ,3,0,0.,24.0,0.,24.0
1979-07-23 04:33:07.480 ,2,1,0.,24.0,0.,24.0
1979-07-23 04:33:31.480 ,2,0,0.,24.0,0.,24.0
1979-07-23 04:33:55.480 ,1,1,0.,24.0,0.,24.0
1979-07-23 04:34:19.480 ,1,0,0.,24.0,0.,24.0
1979-07-23 04:34:43.480 ,0,1,0.,24.0,0.,24.0
1979-07-23 04:35:07.480 ,0,0,0.,24.0,0.,24.0
1979-07-23 04:35:31.480 ,0,1,0.,24.0,0.,24.0
1979-07-23 04:35:55.480 ,0,0,0.,24.0,0.,24.0
1979-07-23 04:36:19.480 ,1,1,1.,24.0,0.,24.0
1979-07-23 04:36:43.480 ,1,0,0.,24.0,0.,24.0
1979-07-23 04:37:07.480 ,2,1,0.,24.0,0.,24.0
1979-07-23 04:37:31.480 ,2,0,0.,24.0,0.,24.0
1979-07-23 04:37:55.480 ,3,1,0.,24.0,0.,24.0
1979-07-23 04:38:19.480 ,3,0,0.,24.0,0.,24.0
1979-07-23 04:38:43.480 ,4,1,0.,24.0,0.,24.0
1979-07-23 04:39:07.480 ,4,0,0.,24.0,0.,24.0
1979-07-23 04:39:31.480 ,5,1,0.,24.0,0.,24.0
1979-07-23 04:39:55.480 ,5,0,0.,24.0,0.,24.0
1979-07-23 04:40:19.480 ,6,1,0.,24.0,0.,24.0
1979-07-23 04:40:43.480 ,6,0,0.,24.0,0.,24.0
1979-07-23 04:41:07.480 ,7,1,0.,24.0,0.,24.0
1979-07-23 04:41:31.480 ,7,0,0.,24.0,0.,24.0
1979-07-23 04:41:55.480 ,7,1,0.,24.0,0.,24.0
1979-07-23 04:42:19.480 ,7,0,0.,24.0,0.,24.0
1979-07-23 04:42:43.480 ,6,1,0.,24.0,0.,24.0
1979-07-23 04:43:07.480 ,6,0,0.,24.0,0.,24.0
1979-07-23 04:43:31.480 ,5,1,0.,24.0,0.,24.0
1979-07-23 04:43:55.480 ,5,0,0.,24.0,0.,24.0
1979-07-23 04:44:19.480 ,4,1,0.,24.0,0.,24.0
1979-07-23 04:44:43.480 ,0,0,0.,24.0,0.,24.0
1979-07-23 04:45:07.480 ,3,1,0.,24.0,0.,24.0
1979-07-23 04:45:31.480 ,3,0,0.,24.0,0.,24.0
1979-07-23 04:45:55.480 ,2,1,0.,24.0,0.,24.0
1979-07-23 04:46:19.480 ,2,0,0.,24.0,0.,24.0
1979-07-23 04:46:43.480 ,1,1,0.,24.0,0.,24.0
1979-07-23 04:47:07.480 ,1,0,0.,24.0,0.,24.0
1979-07-23 04:47:31.480 ,0,1,0.,24.0,0.,24.0
1979-07-23 04:47:55.480 ,0,0,0.,24.0,0.,24.0
1979-07-23 04:48:19.480 ,0,1,0.,24.0,0.,24.0
1979-07-23 04:48:43.480 ,0,0,0.,24.0,0.,24.0
1979-07-23 04:49:07.480 ,1,1,0.,24.0,0.,24.0
1979-07-23 04:49:31.480 ,1,0,0.,24.0,0.,24.0
1979-07-23 04:49:55.480 ,2,1,0.,24.0,0.,24.0
1979-07-23 04:50:19.480 ,2,0,0.,24.0,0.,24.0
1979-07-23 04:50:43.480 ,3,1,0.,24.0,0.,24.0
1979-07-23 04:51:07.480 ,3,0,1.,24.0,0.,24.0
1979-07-23 04:51:31.480 ,4,1,0.,24.0,0.,24.0
1979-07-23 04:51:55.480 ,4,0,0.,24.0,0.,24.0
1979-07-23 04:52:19.480 ,5,1,0.,24.0,0.,24.0
1979-07-23 04:52:43.480 ,5,0,0.,24.0,0.,24.0
1979-07-23 04:53:07.480 ,6,1,0.,24.0,0.,24.0
1979-07-23 04:53:31.480 ,6,0,0.,24.0,0.,24.0
1979-07-23 04:53:55.480 ,7,1,0.,24.0,0.,24.0
1979-07-23 04:54:19.480 ,7,0,0.,24.0,0.,24.0
1979-07-23 04:54:43.480 ,7,1,0.,24.0,0.,24.0
1979-07-23 04:55:07.480 ,7,0,0.,24.0,0.,24.0
1979-07-23 04:55:31.480 ,6,1,0.,24.0,0.,24.0
1979-07-23 04:55:55.480 ,6,0,0.,24.0,0.,24.0
1979-07-23 04:56:19.480 ,5,1,0.,24.0,0.,24.0
1979-07-23 04:56:43.480 ,5,0,0.,24.0,0.,24.0
1979-07-23 04:57:07.480 ,4,1,0.,24.0,0.,24.0
1979-07-23 04:57:31.480 ,4,0,0.,24.0,0.,24.0
1979-07-23 04:57:55.480 ,3,1,0.,24.0,0.,24.0
1979-07-23 04:58:19.480 ,3,0,0.,24.0,0.,24.0
1979-07-23 04:58:43.480 ,2,1,0.,24.0,0.,24.0
1979-07-23 04:59:07.480 ,2,0,1.,24.0,0.,24.0
1979-07-23 04:59:31.480 ,1,1,0.,24.0,0.,24.0
1979-07-23 04:59:55.480 ,1,0,0.,24.0,0.,24.0
1979-07-23 05:00:19.480 ,0,1,0.,24.0,0.,24.0
1979-07-23 05:00:43.480 ,0,0,0.,24.0,0.,24.0
1979-07-23 05:01:07.480 ,0,1,0.,24.0,0.,24.0
1979-07-23 05:01:31.480 ,0,0,0.,24.0,0.,24.0
1979-07-23 05:01:55.480 ,1,1,0.,24.0,0.,24.0
1979-07-23 05:02:19.480 ,1,0,0.,24.0,0.,24.0
1979-07-23 05:02:43.480 ,2,1,0.,24.0,0.,24.0
1979-07-23 05:03:07.480 ,2,0,0.,24.0,0.,24.0
1979-07-23 05:03:31.480 ,3,1,0.,24.0,0.,24.0
1979-07-23 05:03:55.480 ,3,0,0.,24.0,0.,24.0
1979-07-23 05:04:19.480 ,4,1,0.,24.0,0.,24.0
1979-07-23 05:04:43.480 ,4,0,0.,24.0,0.,24.0
1979-07-23 05:05:07.480 ,5,1,0.,24.0,0.,24.0
1979-07-23 05:05:31.480 ,5,0,0.,24.0,0.,24.0
1979-07-23 05:05:55.480 ,6,1,0.,24.0,0.,24.0
1979-07-23 05:06:19.480 ,6,0,0.,24.0,0.,24.0
1979-07-23 05:06:43.480 ,7,0,0.,24.0,0.,24.0
1979-07-23 05:07:07.480 ,7,0,0.,24.0,0.,24.0
1979-07-23 05:07:31.480 ,3,1,0.,24.0,0.,24.0
1979-07-23 05:07:55.480 ,0,1,0.,24.0,0.,24.0
1979-07-23 05:08:19.480 ,4,1,0.,24.0,0.,24.0
1979-07-23 05:08:43.480 ,7,1,0.,24.0,0.,24.0
1979-07-23 05:09:07.480 ,3,1,0.,24.0,0.,24.0
1979-07-23 05:09:31.480 ,0,1,0.,24.0,0.,24.0
1979-07-23 05:09:55.480 ,4,1,0.,24.0,0.,24.0
1979-07-23 05:10:19.480 ,7,1,0.,24.0,0.,24.0
1979-07-23 05:10:43.480 ,3,1,0.,24.0,0.,24.0
1979-07-23 05:11:07.480 ,0,1,0.,24.0,0.,24.0
1979-07-23 05:11:31.480 ,4,1,0.,24.0,0.,24.0
1979-07-23 05:11:55.480 ,7,1,0.,24.0,0.,24.0
1979-07-23 05:12:19.480 ,3,1,0.,24.0,0.,24.0
1979-07-23 05:12:43.480 ,0,1,0.,24.0,0.,24.0
1979-07-23 05:13:07.480 ,4,1,0.,24.0,0.,24.0
1979-07-23 05:13:31.480 ,7,1,0.,24.0,0.,24.0
1979-07-23 05:13:55.480 ,3,1,0.,24.0,0.,24.0
1979-07-23 05:14:19.480 ,0,1,0.,24.0,0.,24.0
1979-07-23 05:14:43.480 ,4,1,0.,24.0,0.,24.0
1979-07-23 05:15:07.480 ,7,1,0.,24.0,0.,24.0
1979-07-23 05:15:31.480 ,3,1,0.,24.0,0.,24.0
1979-07-23 05:15:55.480 ,0,1,0.,24.0,0.,24.0
1979-07-23 05:16:19.480 ,4,1,0.,24.0,0.,24.0
1979-07-23 05:16:43.480 ,7,1,0.,24.0,0.,24.0
1979-07-23 05:17:07.470 ,3,1,0.,24.0,0.,24.0
1979-07-23 05:17:31.470 ,0,1,0.,24.0,0.,24.0
1979-07-23 05:17:55.470 ,0,0,0.,24.0,0.,24.0
1979-07-23 05:18:19.470 ,0,0,0.,24.0,0.,24.0
1979-07-23 05:18:43.470 ,5,1,0.,24.0,0.,24.0
1979-07-23 05:19:07.470 ,5,0,0.,24.0,0.,24.0
1979-07-23 05:19:31.470 ,4,1,0.,24.0,0.,24.0
1979-07-23 05:19:55.470 ,4,0,0.,24.0,0.,24.0
1979-07-23 05:20:19.470 ,3,1,0.,24.0,0.,24.0
1979-07-23 05:20:43.470 ,3,0,0.,24.0,0.,24.0
1979-07-23 05:21:07.470 ,2,1,0.,24.0,0.,24.0
1979-07-23 05:21:31.470 ,2,0,0.,24.0,0.,24.0
1979-07-23 05:21:55.470 ,1,1,0.,24.0,0.,24.0
1979-07-23 05:22:19.470 ,1,0,0.,24.0,0.,24.0
1979-07-23 05:22:43.470 ,0,1,0.,24.0,0.,24.0
1979-07-23 05:23:07.470 ,0,0,0.,24.0,0.,24.0
1979-07-23 05:23:31.470 ,0,1,0.,24.0,0.,24.0
1979-07-23 05:23:55.470 ,0,0,0.,24.0,0.,24.0
1979-07-23 05:24:19.470 ,1,1,0.,24.0,0.,24.0
1979-07-23 05:24:43.470 ,1,0,0.,24.0,0.,24.0
1979-07-23 05:25:07.470 ,2,1,0.,24.0,0.,24.0
1979-07-23 05:25:31.470 ,2,0,0.,24.0,0.,24.0
1979-07-23 05:25:55.470 ,3,1,0.,24.0,0.,24.0
1979-07-23 05:26:19.470 ,3,0,0.,24.0,0.,24.0
1979-07-23 05:26:43.470 ,4,1,0.,24.0,0.,24.0
1979-07-23 05:27:07.470 ,4,0,0.,24.0,0.,24.0
1979-07-23 05:27:31.470 ,5,1,0.,24.0,0.,24.0
1979-07-23 05:27:55.470 ,5,0,0.,24.0,0.,24.0
1979-07-23 05:28:19.470 ,6,1,0.,24.0,0.,24.0
1979-07-23 05:28:43.470 ,6,0,0.,24.0,0.,24.0
1979-07-23 05:29:07.470 ,7,1,0.,24.0,0.,24.0
1979-07-23 05:29:31.470 ,7,0,0.,24.0,0.,24.0
1979-07-23 05:29:55.470 ,7,1,0.,24.0,0.,24.0
1979-07-23 05:30:19.470 ,7,0,0.,24.0,0.,24.0
1979-07-23 05:30:43.470 ,6,1,0.,24.0,0.,24.0
1979-07-23 05:31:07.470 ,6,0,0.,24.0,0.,24.0
1979-07-23 05:31:31.470 ,5,1,0.,24.0,0.,24.0
1979-07-23 05:31:55.470 ,5,0,0.,24.0,0.,24.0
1979-07-23 05:32:19.470 ,4,1,0.,24.0,0.,24.0
1979-07-23 05:32:43.470 ,4,0,0.,24.0,0.,24.0
1979-07-23 05:33:07.470 ,3,1,0.,24.0,0.,24.0
1979-07-23 05:33:31.470 ,3,0,0.,24.0,0.,24.0
1979-07-23 05:33:55.470 ,2,1,0.,24.0,0.,24.0
1979-07-23 05:34:19.470 ,2,0,0.,24.0,0.,24.0
1979-07-23 05:34:43.470 ,1,1,0.,24.0,0.,24.0
1979-07-23 05:35:07.470 ,1,0,0.,24.0,0.,24.0
1979-07-23 05:35:31.470 ,0,1,0.,24.0,0.,24.0
1979-07-23 05:35:55.470 ,0,0,0.,24.0,0.,24.0
1979-07-23 05:36:19.470 ,0,1,0.,24.0,0.,24.0
1979-07-23 05:36:43.470 ,0,0,0.,24.0,0.,24.0
1979-07-23 05:37:07.470 ,1,1,0.,24.0,0.,24.0
1979-07-23 05:37:31.470 ,1,0,0.,24.0,0.,24.0
1979-07-23 05:37:55.470 ,2,1,0.,24.0,0.,24.0
1979-07-23 05:38:19.470 ,2,0,0.,24.0,0.,24.0
1979-07-23 05:38:43.470 ,3,1,0.,24.0,0.,24.0
1979-07-23 05:39:07.470 ,3,0,0.,24.0,0.,24.0
1979-07-23 05:39:31.470 ,4,1,0.,24.0,0.,24.0
1979-07-23 05:39:55.470 ,4,0,0.,24.0,0.,24.0
1979-07-23 05:40:19.470 ,5,1,0.,24.0,0.,24.0
1979-07-23 05:40:43.470 ,5,0,0.,24.0,0.,24.0
1979-07-23 05:41:07.470 ,6,1,0.,24.0,0.,24.0
1979-07-23 05:41:31.470 ,6,0,0.,24.0,0.,24.0
1979-07-23 05:41:55.470 ,7,1,0.,24.0,0.,24.0
1979-07-23 05:42:19.470 ,7,0,0.,24.0,0.,24.0
1979-07-23 05:42:43.470 ,7,1,0.,24.0,0.,24.0
1979-07-23 05:43:07.470 ,7,0,0.,24.0,0.,24.0
1979-07-23 05:43:31.470 ,6,1,0.,24.0,0.,24.0
1979-07-23 05:43:55.470 ,6,0,0.,24.0,0.,24.0
1979-07-23 05:44:19.470 ,5,1,0.,24.0,0.,24.0
1979-07-23 05:44:43.470 ,5,0,0.,24.0,0.,24.0
1979-07-23 05:45:07.470 ,4,1,0.,24.0,0.,24.0
1979-07-23 05:45:31.470 ,4,0,0.,24.0,0.,24.0
1979-07-23 05:45:55.470 ,3,1,0.,24.0,0.,24.0
1979-07-23 05:46:19.470 ,3,0,0.,24.0,0.,24.0
1979-07-23 05:46:43.470 ,2,1,0.,24.0,0.,24.0
1979-07-23 05:47:07.470 ,2,0,0.,24.0,0.,24.0
1979-07-23 05:47:31.470 ,1,1,0.,24.0,0.,24.0
1979-07-23 05:47:55.470 ,1,0,0.,24.0,0.,24.0
1979-07-23 05:48:19.470 ,0,1,0.,24.0,0.,24.0
1979-07-23 05:48:43.470 ,0,0,0.,24.0,0.,24.0
1979-07-23 05:49:07.470 ,0,1,0.,24.0,0.,24.0
1979-07-23 05:49:31.470 ,0,0,0.,24.0,0.,24.0
1979-07-23 05:49:55.470 ,1,1,0.,24.0,0.,24.0
1979-07-23 05:50:19.470 ,1,0,0.,24.0,0.,24.0
1979-07-23 05:50:43.470 ,2,1,0.,24.0,0.,24.0
1979-07-23 05:51:07.470 ,2,0,0.,24.0,0.,24.0
1979-07-23 05:51:31.470 ,3,1,0.,24.0,0.,24.0
1979-07-23 05:51:55.470 ,3,0,0.,24.0,0.,24.0
1979-07-23 05:52:19.470 ,4,1,0.,24.0,0.,24.0
1979-07-23 05:52:43.470 ,4,0,0.,24.0,0.,24.0
1979-07-23 05:53:07.470 ,5,1,0.,24.0,0.,24.0
1979-07-23 05:53:31.470 ,5,0,0.,24.0,0.,24.0
1979-07-23 05:53:55.470 ,6,1,0.,24.0,0.,24.0
1979-07-23 05:54:19.470 ,6,0,0.,24.0,0.,24.0
1979-07-23 05:54:43.470 ,7,0,0.,24.0,0.,24.0
1979-07-23 05:55:07.470 ,7,0,0.,24.0,0.,24.0
1979-07-23 05:55:31.470 ,3,1,0.,24.0,0.,24.0
1979-07-23 05:55:55.470 ,0,1,0.,24.0,0.,24.0
1979-07-23 05:56:19.470 ,4,1,0.,24.0,0.,24.0
1979-07-23 05:56:43.470 ,7,1,0.,24.0,0.,24.0
1979-07-23 05:57:07.470 ,3,1,0.,24.0,0.,24.0
1979-07-23 05:57:31.470 ,0,1,0.,24.0,0.,24.0
1979-07-23 05:57:55.470 ,4,1,0.,24.0,0.,24.0
1979-07-23 05:58:19.470 ,7,1,0.,24.0,0.,24.0
1979-07-23 05:58:43.470 ,3,1,0.,24.0,0.,24.0
1979-07-23 05:59:07.470 ,0,1,0.,24.0,0.,24.0
1979-07-23 05:59:31.470 ,4,1,0.,24.0,0.,24.0
1979-07-23 05:59:55.470 ,7,1,0.,24.0,0.,24.0
1979-07-23 06:00:19.470 ,3,1,0.,24.0,0.,24.0
